Wind_Speed
15 12 18 11 6 11 9 11 15 13 12 12 8 7 7 6 8 10 11 10 10 11 9 12 14 17 20 18 20 21 25 34 39 43 44 45 47 52 53 48 40 37 38 39
18 14 13 12 12 12 13 18 9 13 10 9 8 8 6 6 4 4 3 5 8 10 11 14 18 17 21 21 25 29 34 39 40 44 46 51 55 53 49 43 40 39 39 40
17 16 14 13 17 13 23 18 12 8 5 8 7 6 3 3 3 4 6 8 11 11 13 14 17 21 23 26 31 35 41 35 39 44 48 51 47 45 42 41 42 44 46 48
19 14 21 18 19 20 24 20 18 13 11 11 10 9 5 6 7 9 12 13 13 14 11 15 18 23 25 34 35 38 42 43 47 50 48 50 50 47 46 47 48 49 50 52
23 22 18 17 20 24 19 17 17 22 20 17 13 11 8 8 11 14 15 14 14 16 17 21 24 25 26 30 34 36 42 42 44 45 46 44 42 43 45 47 49 51 54 56
24 18 14 20 23 18 18 19 17 17 19 17 13 15 11 14 17 16 15 14 15 16 19 23 26 26 26 32 36 35 39 43 45 48 48 48 49 51 53 54 54 54 57 61
19 18 15 18 22 20 20 18 16 18 18 16 15 19 16 17 15 13 14 13 14 16 17 19 22 23 25 28 32 35 38 42 45 47 48 50 51 51 52 54 57 59 61 64
18 20 19 17 19 20 20 19 18 19 19 18 19 14 13 10 10 11 11 9 9 10 12 15 19 22 26 29 32 35 38 42 45 47 50 51 52 53 55 58 60 62 65 69
16 16 15 15 18 20 19 19 17 18 15 13 12 7 6 6 8 5 4 5 8 10 13 16 20 25 28 31 35 38 40 43 46 50 52 55 57 58 59 60 62 65 69 72
14 16 15 15 17 17 16 13 12 10 8 6 2 4 5 4 4 5 7 8 11 13 15 19 23 27 30 32 35 39 42 47 49 51 55 58 58 60 60 61 64 67 71 74
16 17 16 15 14 13 12 10 9 7 5 4 5 3 6 7 6 9 11 13 15 17 20 24 28 31 35 38 42 46 50 52 53 53 55 58 60 59 60 63 66 69 74 79
17 17 17 16 15 12 10 9 8 7 8 9 8 6 8 12 13 14 16 17 20 23 26 29 33 36 40 42 46 50 51 53 54 55 58 60 60 61 63 65 70 74 78 83
16 17 18 16 15 13 12 11 10 9 10 10 11 14 15 17 18 19 21 24 27 29 33 36 38 39 42 44 49 51 53 55 55 58 61 62 62 63 66 70 74 77 82 86
18 16 17 17 17 18 16 16 14 13 13 15 15 18 23 23 23 24 26 30 33 35 37 39 40 42 44 47 51 53 54 56 58 60 63 63 64 66 69 73 76 81 85 86
18 17 18 21 22 21 20 20 19 18 20 21 21 22 29 29 30 30 32 35 37 39 42 44 44 46 48 51 53 54 56 58 59 62 63 63 65 68 71 76 80 82 86 91
19 19 22 23 23 24 24 22 22 24 25 27 29 27 34 35 37 36 37 40 41 43 46 48 48 49 52 55 55 57 58 59 61 62 63 64 67 70 74 78 81 84 91 96
21 21 23 25 26 28 30 22 27 29 31 33 33 34 38 39 41 41 42 43 44 47 49 51 51 52 56 56 57 58 59 60 62 63 64 66 69 73 77 80 82 89 94 93
20 22 25 28 29 34 28 28 32 35 37 39 40 41 43 44 45 44 45 47 48 50 51 52 53 54 56 57 58 59 59 61 63 63 65 69 73 76 79 81 87 93 91 79
20 24 27 30 32 34 35 35 38 41 43 45 46 48 49 50 50 48 51 49 51 52 53 53 53 54 56 57 58 59 60 62 63 65 69 71 76 78 79 86 91 89 78 70
21 24 27 29 33 35 36 39 41 44 47 47 50 50 52 52 53 51 51 52 53 53 53 53 54 55 56 57 59 59 61 62 64 68 70 74 78 79 85 90 88 77 71 65
20 23 26 29 33 35 37 39 41 43 47 48 49 51 51 51 51 51 52 52 51 51 52 53 53 56 58 59 59 59 62 64 65 71 73 77 79 83 89 86 78 71 66 59
24 26 28 31 35 39 40 42 44 46 48 50 50 50 50 49 49 50 49 48 50 50 51 54 55 58 58 58 58 61 63 65 69 73 76 77 81 86 87 76 72 66 61 50
30 32 35 36 37 40 43 45 46 46 47 47 46 47 47 47 47 47 47 49 51 53 55 55 57 59 58 59 61 61 66 68 72 74 76 80 84 85 77 71 66 61 52 42
37 39 40 39 38 40 43 43 43 43 43 43 44 45 45 45 46 48 50 53 56 58 55 57 61 59 59 61 62 64 68 70 73 76 80 81 84 78 69 66 61 54 44 36
40 37 36 38 37 39 38 37 39 40 41 42 43 44 44 46 50 52 55 55 55 55 50 59 59 57 62 64 63 69 70 73 76 78 80 82 78 69 65 61 54 45 38 33
31 33 38 38 36 37 36 38 39 39 40 42 44 46 49 51 53 53 51 52 53 56 57 55 56 59 63 67 65 69 74 76 76 78 81 77 71 64 61 54 46 38 34 32
Wind_Direction
155 169 195 178 178 193 238 194 192 187 176 178 179 183 190 219 205 218 234 238 243 247 255 268 283 288 296 294 289 299 299 303 304 306 312 312 311 311 313 311 305 300 297 296
182 179 199 175 187 214 192 180 196 221 214 214 204 201 176 182 172 175 252 263 261 273 290 291 293 294 299 302 304 309 309 304 305 309 307 306 306 308 306 304 300 298 298 299
180 199 207 227 203 218 190 193 201 227 232 209 220 196 172 190 247 248 277 277 282 291 293 300 290 290 289 305 311 303 307 300 297 296 298 307 312 311 310 310 307 305 304 303
201 217 214 220 226 226 197 211 214 208 219 246 232 218 214 262 289 292 290 292 298 305 312 311 300 304 308 300 304 309 303 301 302 305 311 315 315 313 312 310 306 303 300 297
218 237 238 218 214 226 217 222 237 237 229 239 247 257 257 280 297 293 295 299 298 308 315 311 310 304 299 301 302 306 307 298 312 314 315 309 306 301 299 297 295 293 293 295
232 238 230 215 212 218 241 253 247 237 240 251 262 277 282 298 295 297 292 293 304 309 305 307 307 309 305 308 306 313 318 315 312 308 305 301 296 295 296 298 299 299 301 302
230 213 212 218 227 242 245 245 247 250 257 271 279 282 293 300 289 281 284 296 306 311 307 304 303 316 316 317 320 320 316 313 310 306 303 301 299 300 302 301 301 303 306 308
212 222 229 225 228 232 239 246 254 262 267 272 274 280 296 280 274 276 292 311 312 304 306 309 317 319 317 315 315 314 311 307 307 307 308 307 307 305 304 304 306 308 309 308
221 227 229 230 230 236 240 247 252 260 267 274 279 283 258 237 251 270 295 305 320 321 314 314 316 315 313 312 309 306 306 306 306 307 309 311 311 309 309 310 310 310 309 310
230 229 227 227 228 232 235 234 238 249 262 263 184 174 206 202 235 264 277 305 315 313 315 314 309 306 308 312 314 311 309 310 313 314 315 312 311 310 310 310 309 310 311 313
226 223 217 216 214 214 221 225 228 230 235 209 180 209 248 265 274 283 292 299 303 306 308 307 308 311 314 318 319 319 318 317 313 311 312 311 309 309 309 309 311 313 314 314
223 221 215 205 207 209 212 213 213 234 253 257 263 257 267 272 282 288 294 296 300 304 307 310 314 316 319 319 317 318 315 313 310 310 311 311 310 310 310 311 314 315 314 314
218 214 211 214 208 202 203 212 225 249 259 263 265 277 285 289 292 293 297 300 299 303 308 311 314 315 316 315 314 313 312 311 310 311 312 312 312 311 312 314 314 313 315 316
220 216 217 212 209 214 214 227 240 256 271 276 286 282 286 288 292 294 295 297 300 303 304 306 306 308 312 310 309 309 311 310 310 310 312 313 312 313 314 313 313 315 316 315
217 218 219 217 222 226 230 240 250 264 274 281 278 283 287 290 292 293 295 296 298 298 298 300 300 305 308 307 307 309 309 310 309 312 313 312 313 313 313 313 315 316 317 317
220 220 224 227 233 237 239 247 256 265 272 277 279 284 284 289 291 295 297 297 296 296 298 300 298 303 306 306 308 308 309 309 311 312 312 312 312 313 314 317 318 319 318 318
230 230 235 239 243 246 247 253 261 268 274 277 282 285 286 288 290 295 297 297 296 297 296 298 297 299 305 308 308 308 308 308 310 311 312 312 312 315 319 320 320 319 320 322
244 245 247 252 255 259 266 262 267 274 278 281 284 287 287 288 291 295 295 294 295 295 296 298 298 299 305 307 307 306 307 309 309 311 312 312 315 320 321 320 320 321 323 323
252 255 257 259 263 269 270 271 269 271 275 280 284 284 286 290 291 294 294 295 295 296 298 298 298 302 305 306 305 306 308 309 310 313 315 317 319 321 320 321 322 325 324 323
257 260 262 268 271 275 274 273 274 276 278 278 279 284 287 290 293 294 295 295 296 299 298 298 302 304 305 305 306 308 309 309 313 315 316 318 321 320 321 323 325 324 323 323
272 272 273 277 279 283 281 283 283 282 283 287 288 289 290 292 292 293 294 296 297 297 300 303 303 305 305 306 308 308 310 313 312 315 318 321 320 320 323 325 324 323 322 322
279 280 280 281 284 285 287 285 283 286 286 288 290 290 290 290 292 293 295 297 298 301 302 303 305 304 306 307 307 308 312 312 314 318 320 320 319 323 325 324 323 321 321 319
282 282 282 283 285 284 284 285 287 289 289 290 291 291 293 295 296 297 299 300 301 302 303 304 304 306 307 305 305 310 313 314 314 318 319 318 322 325 324 322 322 321 320 318
284 286 287 288 286 284 285 290 291 292 293 294 294 295 296 296 298 301 303 303 304 305 306 304 305 307 303 302 306 310 316 315 317 318 318 322 324 324 322 322 322 320 319 317
288 290 286 283 283 287 291 292 291 292 294 295 295 297 297 299 302 304 306 304 304 303 304 298 305 302 301 303 305 312 314 315 317 318 320 323 324 323 323 324 321 321 319 315
289 284 284 288 290 291 292 290 291 293 293 294 296 298 299 300 302 304 303 304 304 302 300 303 303 301 303 304 304 310 312 315 316 320 322 323 324 324 325 324 322 321 317 315
Height
5778 5783 5787 5789 5791 5792 5794 5797 5799 5800 5802 5804 5806 5809 5810 5811 5811 5811 5812 5812 5811 5812 5811 5811 5810 5809 5808 5807 5806 5805 5803 5800 5796 5792 5788 5786 5782 5777 5772 5768 5764 5760 5755 5751
5780 5783 5786 5788 5790 5792 5794 5796 5799 5800 5802 5805 5806 5808 5809 5810 5810 5810 5810 5809 5809 5809 5809 5807 5806 5805 5803 5801 5800 5798 5794 5791 5788 5785 5781 5777 5771 5767 5764 5759 5754 5750 5746 5741
5780 5784 5786 5788 5789 5791 5793 5795 5798 5801 5802 5803 5805 5807 5807 5808 5808 5808 5808 5807 5806 5806 5805 5804 5803 5801 5799 5798 5795 5792 5789 5785 5781 5777 5773 5768 5762 5758 5753 5748 5744 5740 5735 5730
5779 5782 5784 5785 5787 5790 5792 5794 5797 5798 5801 5802 5803 5805 5805 5806 5806 5805 5804 5803 5802 5801 5801 5799 5796 5795 5793 5791 5789 5785 5781 5777 5772 5767 5762 5758 5753 5748 5744 5739 5734 5730 5725 5720
5779 5781 5783 5785 5787 5788 5791 5794 5796 5797 5798 5799 5801 5802 5802 5802 5802 5801 5800 5799 5798 5797 5796 5794 5791 5789 5788 5784 5782 5778 5774 5769 5763 5759 5754 5750 5746 5741 5736 5731 5725 5719 5714 5708
5777 5779 5780 5783 5785 5788 5790 5792 5793 5794 5795 5796 5796 5797 5797 5797 5796 5795 5794 5793 5793 5793 5791 5788 5785 5783 5781 5779 5776 5772 5766 5761 5756 5752 5748 5743 5738 5733 5726 5720 5713 5707 5701 5694
5774 5777 5779 5782 5784 5786 5788 5789 5790 5791 5791 5792 5792 5791 5792 5791 5790 5789 5788 5789 5789 5787 5786 5784 5781 5778 5775 5772 5768 5764 5759 5754 5749 5744 5739 5733 5727 5721 5715 5708 5701 5695 5687 5679
5773 5776 5777 5779 5782 5784 5784 5786 5787 5787 5787 5788 5787 5786 5788 5787 5785 5784 5784 5784 5783 5783 5781 5779 5776 5774 5770 5767 5763 5759 5754 5749 5743 5736 5730 5724 5717 5710 5703 5695 5688 5680 5673 5665
5771 5773 5774 5776 5778 5780 5781 5782 5784 5783 5783 5783 5783 5783 5782 5782 5782 5782 5781 5781 5780 5779 5777 5775 5772 5769 5766 5762 5757 5752 5747 5741 5734 5727 5721 5713 5705 5697 5690 5683 5675 5667 5659 5650
5768 5770 5771 5772 5774 5776 5777 5780 5781 5781 5781 5781 5781 5781 5781 5781 5781 5780 5779 5778 5776 5774 5772 5770 5767 5763 5760 5755 5751 5745 5739 5731 5724 5716 5708 5701 5693 5686 5678 5671 5663 5655 5645 5635
5765 5767 5769 5770 5772 5774 5776 5777 5778 5779 5779 5779 5780 5782 5780 5779 5779 5778 5776 5775 5773 5770 5767 5764 5760 5756 5751 5745 5739 5733 5726 5719 5712 5705 5698 5690 5682 5675 5667 5659 5649 5640 5629 5618
5762 5764 5766 5768 5769 5771 5773 5775 5776 5776 5778 5777 5778 5780 5778 5776 5775 5773 5772 5770 5767 5764 5761 5757 5752 5746 5740 5734 5728 5722 5715 5709 5701 5693 5685 5678 5670 5661 5654 5645 5634 5623 5612 5599
5759 5761 5764 5766 5769 5770 5771 5772 5773 5774 5774 5775 5775 5775 5773 5771 5770 5768 5766 5763 5760 5756 5752 5747 5741 5736 5730 5725 5718 5711 5704 5697 5689 5681 5674 5665 5656 5648 5640 5630 5619 5608 5596 5583
5757 5759 5762 5764 5765 5766 5768 5769 5770 5770 5771 5771 5771 5770 5767 5767 5765 5763 5760 5757 5753 5747 5742 5737 5731 5726 5720 5713 5707 5700 5692 5684 5677 5669 5661 5652 5644 5635 5626 5616 5604 5593 5580 5567
5754 5757 5759 5760 5762 5764 5765 5766 5767 5767 5766 5766 5766 5765 5760 5760 5758 5756 5753 5749 5744 5738 5733 5728 5722 5716 5710 5702 5696 5688 5680 5672 5664 5656 5648 5640 5631 5621 5611 5599 5588 5576 5561 5545
5752 5754 5756 5757 5759 5760 5761 5762 5762 5762 5761 5760 5759 5760 5753 5752 5749 5747 5744 5739 5734 5728 5723 5717 5710 5705 5698 5691 5684 5676 5668 5660 5651 5643 5634 5625 5616 5606 5595 5584 5570 5555 5540 5524
5749 5752 5753 5754 5755 5755 5756 5760 5757 5756 5755 5753 5752 5751 5746 5743 5740 5737 5733 5727 5722 5717 5711 5705 5699 5694 5686 5679 5671 5663 5655 5647 5639 5630 5621 5612 5603 5592 5580 5566 5552 5538 5522 5504
5747 5748 5749 5750 5750 5748 5753 5754 5752 5749 5747 5745 5744 5740 5736 5732 5730 5727 5721 5716 5712 5706 5700 5694 5687 5681 5674 5667 5659 5651 5643 5635 5627 5617 5608 5598 5588 5576 5563 5549 5535 5519 5503 5489
5742 5743 5744 5743 5744 5744 5744 5745 5743 5740 5739 5736 5732 5728 5725 5721 5717 5715 5708 5705 5699 5693 5687 5681 5675 5669 5662 5655 5647 5639 5631 5623 5614 5605 5594 5583 5571 5560 5547 5532 5517 5501 5487 5476
5737 5737 5737 5737 5735 5734 5735 5734 5733 5730 5727 5725 5721 5718 5714 5709 5706 5701 5696 5691 5685 5680 5674 5668 5662 5656 5650 5642 5634 5626 5618 5609 5601 5590 5579 5567 5556 5544 5530 5516 5500 5486 5474 5464
5731 5730 5730 5729 5727 5725 5725 5723 5721 5718 5717 5711 5709 5705 5702 5697 5693 5689 5683 5679 5673 5668 5662 5656 5650 5643 5635 5628 5621 5612 5604 5595 5585 5575 5564 5553 5540 5528 5514 5499 5484 5473 5462 5452
5724 5723 5722 5721 5719 5716 5714 5712 5709 5706 5702 5698 5696 5692 5687 5684 5680 5675 5671 5666 5661 5656 5650 5643 5636 5629 5622 5615 5607 5599 5590 5582 5571 5560 5550 5539 5527 5512 5497 5484 5472 5461 5451 5442
5717 5716 5714 5714 5712 5706 5702 5699 5696 5693 5690 5687 5683 5679 5675 5672 5668 5663 5659 5654 5649 5643 5637 5630 5622 5615 5608 5600 5593 5585 5576 5567 5557 5547 5536 5524 5511 5497 5484 5472 5460 5450 5440 5432
5707 5705 5703 5702 5700 5694 5690 5687 5684 5681 5677 5674 5671 5667 5663 5660 5655 5652 5647 5642 5636 5629 5623 5616 5609 5601 5593 5586 5579 5571 5563 5553 5544 5533 5521 5508 5497 5484 5471 5460 5448 5438 5430 5423
5697 5694 5691 5688 5686 5682 5681 5679 5675 5671 5667 5664 5659 5656 5652 5649 5644 5639 5634 5628 5622 5615 5609 5602 5595 5589 5581 5573 5565 5557 5548 5539 5528 5517 5505 5494 5482 5471 5459 5447 5437 5428 5421 5416
5686 5682 5678 5676 5676 5672 5671 5668 5665 5662 5658 5654 5650 5647 5642 5637 5632 5627 5621 5615 5608 5601 5595 5589 5583 5575 5568 5560 5551 5543 5534 5523 5513 5502 5490 5479 5469 5457 5446 5436 5427 5420 5414 5409